DW0148 Weather Reports


time (UTC)temp
C
wind
direction
speed
KPH
gust
KPH
rain 1hr
cm
rain 24hr
cm
rain mn
cm
humidity
%
barometer
mb
20260905150502 28 135 0.0 0.0 0.00 0.00 0.00 86 1012.5
20260905150001 28 136 0.0 0.0 0.00 0.00 0.00 86 1012.5
20260905145429 27 136 0.0 0.0 0.00 0.00 0.00 85 1012.5
20260905144856 27 137 0.0 0.0 0.00 0.00 0.00 85 1012.5
20260905144251 27 136 0.0 0.0 0.00 0.00 0.00 86 1012.5
20260905143750 27 136 0.0 0.0 0.00 0.00 0.00 87 1012.5
20260905143248 27 136 0.0 0.0 0.00 0.00 0.00 86 1012.9
20260905142747 27 136 0.0 0.0 0.00 0.00 0.00 87 1012.9
20260905142144 27 88 0.0 0.0 0.00 0.00 0.00 88 1012.9
20260905141643 26 76 0.0 0.0 0.00 0.00 0.00 88 1012.9
20260905141111 26 87 0.0 0.0 0.00 0.00 0.00 90 1012.5
20260905140609 26 84 0.0 0.0 0.00 0.00 0.00 92 1012.9
20260905140108 26 118 0.0 0.0 0.00 0.00 0.00 95 1012.9
20260905135607 25 118 0.0 0.0 0.00 0.00 0.00 95 1012.9
20260905135003 25 120 0.0 0.0 0.00 0.00 0.00 95 1012.9
20260905134431 25 123 0.0 0.0 0.00 0.00 0.00 95 1012.9
20260905133930 25 127 0.0 0.0 0.00 0.00 0.00 95 1012.9
20260905133429 25 127 0.0 0.0 0.00 0.00 0.00 95 1012.9
20260905132927 25 128 0.0 0.0 0.00 0.00 0.00 95 1012.9
20260905132426 25 128 0.0 0.0 0.00 0.00 0.00 95 1012.9
20260905131925 25 128 0.0 0.0 0.00 0.00 0.00 95 1012.9
20260905131424 25 128 0.0 0.0 0.00 0.00 0.00 95 1013.2
20260905130924 24 128 0.0 0.0 0.00 0.00 0.00 95 1013.2
20260905130421 24 129 0.0 0.0 0.00 0.00 0.00 95 1012.9
20260905125847 24 129 0.0 0.0 0.00 0.00 0.00 95 1012.9
20260905125347 24 129 0.0 0.0 0.00 0.00 0.00 95 1013.2
20260905124846 24 58 0.0 0.0 0.00 0.00 0.00 95 1013.2
20260905124344 24 58 0.0 0.0 0.00 0.00 0.00 95 1013.2
20260905123843 24 58 0.0 0.0 0.00 0.00 0.00 95 1013.2
20260905123342 23 58 0.0 0.0 0.00 0.00 0.00 95 1013.2
20260905122841 23 58 0.0 0.0 0.00 0.00 0.00 95 1013.2
20260905122339 23 58 0.0 0.0 0.00 0.00 0.00 95 1013.2
20260905121838 23 58 0.0 0.0 0.00 0.00 0.00 95 1012.9
20260905121306 23 58 0.0 0.0 0.00 0.00 0.00 95 1012.9
20260905120805 23 58 0.0 0.0 0.00 0.00 0.00 95 1012.9
20260905120233 22 58 0.0 0.0 0.00 0.00 0.00 95 1012.9
20260905115732 22 58 0.0 0.0 0.00 0.00 0.00 95 1012.9
20260905115230 22 58 0.0 0.0 0.00 0.00 0.00 95 1012.9
20260905114729 22 58 0.0 0.0 0.00 0.00 0.00 95 1012.5
20260905114228 22 58 0.0 0.0 0.00 0.00 0.00 95 1012.5
20260905113727 22 58 0.0 0.0 0.00 0.00 0.00 95 1012.5
20260905113226 22 58 0.0 0.0 0.00 0.00 0.00 95 1012.5
20260905112725 22 58 0.0 0.0 0.00 0.00 0.00 95 1012.5
20260905112224 22 58 0.0 0.0 0.00 0.00 0.00 95 1012.2
20260905111723 22 58 0.0 0.0 0.00 0.00 0.00 95 1012.2
20260905111222 22 58 0.0 0.0 0.00 0.00 0.00 95 1012.2
20260905110720 22 58 0.0 0.0 0.00 0.00 0.00 95 1012.2
20260905110219 22 58 0.0 0.0 0.00 0.00 0.00 95 1012.2
20260905105645 22 58 0.0 0.0 0.00 0.00 0.00 95 1012.2
20260905105144 22 58 0.0 0.0 0.00 0.00 0.00 95 1012.2
20260905104643 22 58 0.0 0.0 0.00 0.00 0.00 95 1011.9
20260905104142 22 58 0.0 0.0 0.00 0.00 0.00 95 1012.2
20260905103640 22 58 0.0 0.0 0.00 0.00 0.00 95 1011.9
20260905103139 22 58 0.0 0.0 0.00 0.00 0.00 95 1011.9
20260905102638 22 58 0.0 0.0 0.00 0.00 0.00 95 1011.9
20260905102034 22 58 0.0 0.0 0.00 0.00 0.00 95 1011.9
20260905101501 22 58 0.0 0.0 0.00 0.00 0.00 95 1011.9
20260905100958 22 58 0.0 0.0 0.00 0.00 0.00 95 1011.9
20260905100458 22 58 0.0 0.0 0.00 0.00 0.00 95 1011.9
20260905095957 22 58 0.0 0.0 0.00 0.00 0.00 95 1011.5
20260905095456 22 58 0.0 0.0 0.00 0.00 0.00 95 1011.5
20260905094955 22 58 0.0 0.0 0.00 0.00 0.00 95 1011.5
20260905094454 22 58 0.0 0.0 0.00 0.00 0.00 95 1011.5
20260905093951 22 58 0.0 0.0 0.00 0.00 0.00 95 1011.2
20260905093450 22 58 0.0 0.0 0.00 0.00 0.00 95 1011.2
20260905092949 22 58 0.0 0.0 0.00 0.00 0.00 95 1011.5
20260905092417 22 58 0.0 0.0 0.00 0.00 0.00 95 1011.5
20260905091915 22 58 0.0 0.0 0.00 0.00 0.00 95 1011.5
20260905091414 22 58 0.0 0.0 0.00 0.00 0.00 95 1011.5
20260905090842 22 58 0.0 0.0 0.00 0.00 0.00 95 1011.5
20260905090341 22 58 0.0 0.0 0.00 0.00 0.00 95 1011.5
20260905085840 23 58 0.0 0.0 0.00 0.00 0.00 95 1011.5
20260905085306 23 58 0.0 0.0 0.00 0.00 0.00 95 1011.5
20260905084805 23 58 0.0 0.0 0.00 0.00 0.00 95 1011.5
20260905084304 23 58 0.0 0.0 0.00 0.00 0.00 95 1011.5
20260905083803 23 58 0.0 0.0 0.00 0.00 0.00 95 1011.5
20260905083302 23 58 0.0 0.0 0.00 0.00 0.00 95 1011.5
20260905082801 23 58 0.0 0.0 0.00 0.00 0.00 95 1011.5
20260905082300 23 58 0.0 0.0 0.00 0.00 0.00 95 1011.5
20260905081759 23 58 0.0 0.0 0.00 0.00 0.00 95 1011.5
20260905081153 23 58 0.0 0.0 0.00 0.00 0.00 95 1011.5
20260905080651 23 58 0.0 0.0 0.00 0.00 0.00 95 1011.5
20260905080150 23 58 0.0 0.0 0.00 0.00 0.00 95 1011.5
20260905075649 23 58 0.0 0.0 0.00 0.00 0.00 95 1011.5
20260905075116 23 58 0.0 0.0 0.00 0.00 0.00 95 1011.9
20260905074615 23 58 0.0 0.0 0.00 0.00 0.00 95 1011.9
20260905074114 23 58 0.0 0.0 0.00 0.00 0.00 95 1011.9
20260905073542 23 58 0.0 0.0 0.00 0.00 0.00 95 1011.9
20260905073041 23 58 0.0 0.0 0.00 0.00 0.00 95 1011.9
20260905072538 23 58 0.0 0.0 0.00 0.00 0.00 95 1011.9
20260905072036 23 58 0.0 0.0 0.00 0.00 0.00 95 1011.9
20260905071535 23 58 0.0 0.0 0.00 0.00 0.00 95 1011.9
20260905071034 23 58 0.0 0.0 0.00 0.00 0.00 95 1011.9
20260905070533 23 58 0.0 0.0 0.00 0.00 0.00 95 1011.9
20260905070032 23 58 0.0 0.0 0.00 0.00 0.00 95 1011.9
20260905065530 23 58 0.0 0.0 0.00 0.00 0.00 95 1011.9
20260905064959 23 58 0.0 0.0 0.00 0.00 0.00 95 1011.9
20260905064457 23 58 0.0 0.0 0.00 0.00 0.00 95 1011.9
20260905063957 23 58 0.0 0.0 0.00 0.00 0.00 95 1011.9
20260905063456 23 58 0.0 0.0 0.00 0.00 0.00 95 1011.9
20260905062954 23 58 0.0 0.0 0.00 0.00 0.00 95 1011.9
20260905062453 23 58 0.0 0.0 0.00 0.00 0.00 95 1011.9
20260905061952 23 58 0.0 0.0 0.00 0.00 0.00 95 1011.9
20260905061450 23 58 0.0 0.0 0.00 0.00 0.00 95 1011.9
20260905060949 23 58 0.0 0.0 0.00 0.00 0.00 95 1011.9
20260905060447 23 58 0.0 0.0 0.00 0.00 0.00 95 1011.9
20260905055946 23 58 0.0 0.0 0.00 0.00 0.00 95 1011.9
20260905055445 23 58 0.0 0.0 0.00 0.00 0.00 95 1012.2
20260905054944 23 58 0.0 0.0 0.00 0.00 0.00 95 1012.2
20260905054443 23 58 0.0 0.0 0.00 0.00 0.00 95 1012.2
20260905053911 23 58 0.0 0.0 0.00 0.00 0.00 95 1012.2
20260905053410 23 58 0.0 0.0 0.00 0.00 0.00 95 1012.2
20260905052909 23 58 0.0 0.0 0.00 0.00 0.00 95 1012.2
20260905052408 23 58 0.0 0.0 0.00 0.00 0.00 95 1012.2
20260905051907 23 58 0.0 0.0 0.00 0.00 0.00 95 1012.2
20260905051406 23 58 0.0 0.0 0.00 0.00 0.00 95 1012.2
20260905050905 23 58 0.0 0.0 0.00 0.00 0.00 95 1012.2
20260905050404 23 58 0.0 0.0 0.00 0.00 0.00 95 1012.2
20260905045903 23 58 0.0 0.0 0.00 0.00 0.00 95 1011.9
20260905045331 23 58 0.0 0.0 0.00 0.00 0.00 95 1012.2
20260905044830 23 58 0.0 0.0 0.00 0.00 0.00 95 1012.2
20260905044329 23 58 0.0 0.0 0.00 0.00 0.00 95 1012.2
20260905043828 23 58 0.0 0.0 0.00 0.00 0.00 95 1012.2
20260905043255 23 58 0.0 0.0 0.00 0.00 0.00 95 1012.2
20260905042754 23 58 0.0 0.0 0.00 0.00 0.00 94 1012.2
20260905042253 23 58 0.0 0.0 0.00 0.00 0.00 94 1012.2
20260905041752 23 58 0.0 0.0 0.00 0.00 0.00 94 1012.2
20260905041250 23 58 0.0 0.0 0.00 0.00 0.00 94 1012.2
20260905040748 23 58 0.0 0.0 0.00 0.00 0.00 94 1012.2
20260905040247 24 58 0.0 0.0 0.00 0.00 0.00 94 1012.2
20260905035746 24 58 0.0 0.0 0.00 0.00 0.00 94 1012.2
20260905035245 24 58 0.0 0.0 0.00 0.00 0.00 94 1012.2
20260905034744 24 58 0.0 0.0 0.00 0.00 0.00 94 1012.2
20260905034243 24 58 0.0 0.0 0.00 0.00 0.00 94 1011.9
20260905033741 24 58 0.0 0.0 0.00 0.00 0.00 94 1012.2
20260905033240 24 58 0.0 0.0 0.00 0.00 0.00 94 1012.2
20260905032738 24 58 0.0 0.0 0.00 0.00 0.00 94 1012.2
20260905032237 24 58 0.0 0.0 0.00 0.00 0.00 94 1012.5
20260905031736 24 58 0.0 0.0 0.00 0.00 0.00 94 1012.5
20260905031234 24 58 0.0 0.0 0.00 0.00 0.00 94 1012.5
20260905030733 24 58 0.0 0.0 0.00 0.00 0.00 94 1012.5
20260905030230 24 58 0.0 0.0 0.00 0.00 0.00 94 1012.5
20260905025729 24 58 0.0 0.0 0.00 0.00 0.00 94 1012.5
20260905025227 24 58 0.0 0.0 0.00 0.00 0.00 94 1012.5
20260905024726 24 58 0.0 0.0 0.00 0.00 0.00 93 1012.9
20260905024225 24 58 0.0 0.0 0.00 0.00 0.00 93 1012.5
20260905023652 25 58 0.0 0.0 0.00 0.00 0.00 93 1012.5
20260905023151 25 58 0.0 0.0 0.00 0.00 0.00 92 1012.5
20260905022649 25 58 0.0 0.0 0.00 0.00 0.00 92 1012.9
20260905022148 25 58 0.0 0.0 0.00 0.00 0.00 92 1012.9
20260905021647 25 58 0.0 0.0 0.00 0.00 0.00 91 1012.9
20260905021146 25 58 0.0 0.0 0.00 0.00 0.00 91 1012.9
20260905020644 25 56 0.0 0.0 0.00 0.00 0.00 91 1012.9
20260905020112 25 56 0.0 0.0 0.00 0.00 0.00 91 1012.9
20260905015609 25 56 0.0 0.0 0.00 0.00 0.00 92 1012.9
20260905015108 25 56 0.0 0.0 0.00 0.00 0.00 92 1012.9
20260905014607 25 56 0.0 0.0 0.00 0.00 0.00 92 1012.9
20260905014106 25 57 0.0 0.0 0.00 0.00 0.00 91 1012.9
20260905013605 25 57 0.0 0.0 0.00 0.00 0.00 92 1012.5
20260905013104 25 27 0.0 0.0 0.00 0.00 0.00 92 1012.5
20260905012602 25 27 0.0 0.0 0.00 0.00 0.00 91 1012.5
20260905012101 25 27 0.0 0.0 0.00 0.00 0.00 91 1012.5
20260905011559 25 27 0.0 0.0 0.00 0.00 0.00 91 1012.5
20260905011058 25 27 0.0 0.0 0.00 0.00 0.00 90 1012.5
20260905010557 25 25 0.0 0.0 0.00 0.00 0.00 90 1012.5
20260905010055 26 25 0.0 0.0 0.00 0.00 0.00 89 1012.5
20260905005522 26 26 0.0 0.0 0.00 0.00 0.00 89 1012.5
20260905005021 26 26 0.0 0.0 0.00 0.00 0.00 89 1012.5
20260905004521 26 25 0.0 0.0 0.00 0.00 0.00 89 1012.5
20260905004020 26 25 0.0 0.0 0.00 0.00 0.00 89 1012.5
20260905003518 26 25 0.0 0.0 0.00 0.00 0.00 88 1012.2
20260905003018 26 26 0.0 0.0 0.00 0.00 0.00 87 1012.2
20260905002516 27 25 0.0 0.0 0.00 0.00 0.00 88 1012.2
20260905002016 27 25 0.0 0.0 0.00 0.00 0.00 88 1012.2
20260905001514 27 25 0.0 0.0 0.00 0.00 0.00 90 1012.2
20260905001013 27 25 0.0 0.0 0.00 0.00 0.00 89 1012.2
20260905000512 27 25 0.0 0.0 0.00 0.00 0.00 89 1012.2
20260905000011 27 25 0.0 0.0 0.00 0.00 0.00 88 1012.2
20260904235510 28 26 0.0 0.0 0.00 0.00 0.00 88 1011.9
20260904235010 28 26 0.0 0.0 0.00 0.00 0.00 87 1012.2
20260904234508 28 25 0.0 0.0 0.00 0.00 0.00 87 1011.9
20260904234007 28 25 0.0 0.0 0.00 0.00 0.00 87 1012.2
20260904233505 28 25 0.0 0.0 0.00 0.00 0.00 87 1011.9
20260904232901 28 25 0.0 0.0 0.00 0.00 0.00 86 1011.9
20260904232359 28 25 0.0 0.0 0.00 0.00 0.00 86 1011.9
20260904231858 28 25 0.0 0.0 0.00 0.00 0.00 85 1011.9
20260904231356 29 26 0.0 0.0 0.00 0.00 0.00 84 1011.9
20260904230856 29 26 0.0 0.0 0.00 0.00 0.00 82 1011.9
20260904230324 30 26 0.0 0.0 0.00 0.00 0.00 80 1011.9
20260904225822 30 25 0.0 0.0 0.00 0.00 0.00 79 1011.5
20260904225250 30 26 0.0 0.0 0.00 0.00 0.00 78 1011.5
20260904224749 30 25 0.0 0.0 0.00 0.00 0.00 77 1011.5
20260904224249 30 25 0.0 0.0 0.00 0.00 0.00 75 1011.5
20260904223748 31 25 0.0 0.0 0.00 0.00 0.00 74 1011.5
20260904223144 31 25 0.0 0.0 0.00 0.00 0.00 75 1011.5
20260904222612 31 25 0.0 0.0 0.00 0.00 0.00 74 1011.5
20260904222111 32 26 0.0 0.0 0.00 0.00 0.00 74 1011.5
20260904221538 32 25 0.0 0.0 0.00 0.00 0.00 73 1011.5
20260904221037 32 25 0.0 0.0 0.00 0.00 0.00 74 1011.5
20260904220536 32 25 0.0 0.0 0.00 0.00 0.00 72 1011.5
20260904220034 32 25 0.0 0.0 0.00 0.00 0.00 68 1011.5
20260904215533 33 25 0.0 0.0 0.00 0.00 0.00 66 1011.5
20260904215032 33 25 0.0 0.0 0.00 0.00 0.00 63 1011.5
20260904214530 33 26 0.0 0.0 0.00 0.00 0.00 62 1011.5
20260904214029 33 25 0.0 0.0 0.00 0.00 0.00 63 1011.5
20260904213528 33 26 0.0 0.0 0.00 0.00 0.00 65 1011.5
20260904213027 33 25 0.0 0.0 0.00 0.00 0.00 64 1011.5
20260904212525 32 25 0.0 0.0 0.00 0.00 0.00 69 1011.5
20260904211953 32 26 0.0 0.0 0.00 0.00 0.00 72 1011.5
20260904211452 32 28 0.0 0.0 0.00 0.00 0.00 78 1011.5
20260904210951 32 28 0.0 0.0 0.00 0.00 0.00 75 1011.9
20260904210450 32 28 0.0 0.0 0.00 0.00 0.00 75 1011.9
20260904205949 32 29 0.0 0.0 0.00 0.00 0.00 74 1011.9
20260904205416 33 28 0.0 0.0 0.00 0.00 0.00 74 1011.9
20260904204914 33 29 0.0 0.0 0.00 0.00 0.00 74 1012.2
20260904204414 33 29 0.0 0.0 0.00 0.00 0.00 73 1012.2
20260904203841 33 29 0.0 0.0 0.00 0.00 0.00 70 1012.2
20260904203339 33 28 0.0 0.0 0.00 0.00 0.00 69 1012.2
20260904202807 33 29 0.0 0.0 0.00 0.00 0.00 71 1012.2
20260904202306 32 29 0.0 0.0 0.00 0.00 0.00 70 1012.5
20260904201805 32 29 0.0 0.0 0.00 0.00 0.00 71 1012.5
20260904201304 32 28 0.0 0.0 0.00 0.00 0.00 69 1012.5
20260904200803 33 29 0.0 0.0 0.00 0.00 0.00 66 1012.5
20260904200302 33 29 0.0 0.0 0.00 0.00 0.00 65 1012.5
20260904195801 33 29 0.0 0.0 0.00 0.00 0.00 64 1012.9
20260904195300 33 41 0.0 0.0 0.00 0.00 0.00 61 1012.9
20260904194759 33 39 0.0 0.0 0.00 0.00 0.00 60 1012.9
20260904194258 33 324 0.0 0.0 0.00 0.00 0.00 59 1012.9
20260904193756 34 320 0.0 0.0 0.00 0.00 0.00 57 1013.2
20260904193224 34 27 0.0 0.0 0.00 0.00 0.00 55 1013.2
20260904192723 34 17 0.0 0.0 0.00 0.00 0.00 57 1013.2
20260904192222 35 41 0.0 0.0 0.00 0.00 0.00 57 1013.2
20260904191721 35 148 0.0 0.0 0.00 0.00 0.00 55 1013.2
20260904191118 35 151 0.0 0.0 0.00 0.00 0.00 53 1013.5
20260904190616 35 150 0.0 0.0 0.00 0.00 0.00 52 1013.5
20260904190115 36 170 0.0 0.0 0.00 0.00 0.00 53 1013.5
20260904185512 36 159 0.0 0.0 0.00 0.00 0.00 53 1013.5
20260904185011 36 180 0.0 0.0 0.00 0.00 0.00 55 1013.9
20260904184510 36 180 0.0 0.0 0.00 0.00 0.00 57 1013.5
20260904183938 36 170 0.0 0.0 0.00 0.00 0.00 56 1013.5
20260904183437 36 179 0.0 0.0 0.00 0.00 0.00 59 1013.9
20260904182936 36 176 0.0 0.0 0.00 0.00 0.00 59 1013.9
20260904182436 35 160 0.0 0.0 0.00 0.00 0.00 58 1013.9
20260904181933 35 177 0.0 0.0 0.00 0.00 0.00 58 1013.9
20260904181433 35 159 0.0 0.0 0.00 0.00 0.00 60 1013.9
20260904180931 35 172 0.0 0.0 0.00 0.00 0.00 63 1014.2
20260904180430 35 151 0.0 0.0 0.00 0.00 0.00 61 1014.2
20260904175929 34 176 0.0 0.0 0.00 0.00 0.00 59 1014.2
20260904175428 34 177 0.0 0.0 0.00 0.00 0.00 59 1014.2
20260904174856 34 179 0.0 0.0 0.00 0.00 0.00 62 1014.2
20260904174324 34 180 0.0 0.0 0.00 0.00 0.00 59 1014.6
20260904173721 34 179 0.0 0.0 0.00 0.00 0.00 62 1014.6
20260904173047 34 152 0.0 0.0 0.00 0.00 0.00 62 1014.6
20260904172545 33 155 0.0 0.0 0.00 0.00 0.00 63 1014.6
20260904172043 33 151 0.0 0.0 0.00 0.00 0.00 67 1014.6
20260904171511 34 155 0.0 0.0 0.00 0.00 0.00 65 1014.9
20260904171010 33 176 0.0 0.0 0.00 0.00 0.00 65 1014.9
20260904170509 33 174 0.0 0.0 0.00 0.00 0.00 67 1014.9
20260904165935 33 155 0.0 0.0 0.00 0.00 0.00 65 1014.9
20260904165435 33 177 0.0 0.0 0.00 0.00 0.00 68 1014.9
20260904164933 33 176 0.0 0.0 0.00 0.00 0.00 67 1014.9
20260904164432 33 156 0.0 0.0 0.00 0.00 0.00 68 1015.2
20260904163900 33 176 0.0 0.0 0.00 0.00 0.00 66 1015.2
20260904163328 33 174 0.0 0.0 0.00 0.00 0.00 66 1015.2
20260904162827 33 176 0.0 0.0 0.00 0.00 0.00 68 1015.2
20260904162326 33 155 0.0 0.0 0.00 0.00 0.00 68 1015.2
20260904161824 32 176 0.0 0.0 0.00 0.00 0.00 69 1015.2
20260904161251 32 176 0.0 0.0 0.00 0.00 0.00 69 1015.6
20260904160750 32 177 0.0 0.0 0.00 0.00 0.00 70 1015.6
20260904160249 32 173 0.0 0.0 0.00 0.00 0.00 69 1015.6
20260904155716 32 159 0.0 0.0 0.00 0.00 0.00 71 1015.6
20260904155214 32 176 0.0 0.0 0.00 0.00 0.00 72 1015.6
20260904154712 32 163 0.0 0.0 0.00 0.00 0.00 72 1015.6
20260904154211 32 159 0.0 0.0 0.00 0.00 0.00 70 1015.6
20260904153711 32 165 0.0 0.0 0.00 0.00 0.00 71 1015.6
20260904153209 32 179 0.0 0.0 0.00 0.00 0.00 73 1015.6
20260904152708 32 172 0.0 0.0 0.00 0.00 0.00 71 1015.6
20260904152207 32 173 0.0 0.0 0.00 0.00 0.00 73 1015.6
20260904151706 31 167 0.0 0.0 0.00 0.00 0.00 74 1015.6
20260904151205 31 173 0.0 0.0 0.00 0.00 0.00 73 1015.6